Location: Peterborough
(44.3091°N, 78.3197°W)
Time: 22:43:45
(UTC-04:00)

Vanguard 1 - Pass Details

Date: 14 April 2024
Orbit: 652 x 3825 km, 34.2° (Epoch: 29 May)

Event Time Altitude Azimuth Distance (km) Brightness Sun altitude
Rises 10:34:15 0° 265° (W) 6,021 13.7 41.3°
Reaches altitude 10° 10:39:12 10° 259° (W) 4,464 13.2 42.0°
Maximum altitude 10:49:00 39° 196° (SSW) 1,840 12.1 43.5°
Drops below altitude 10° 10:54:50 10° 129° (SE) 2,650 13.4 44.3°
Sets 10:57:02 0° 120° (ESE) 3,378 13.6 44.6°
